STARLINK-32354, 61932

Orbit data source: Space-Track

STARLINK-32354, 61932 is a payload satellite owned by SpaceX/Seattle (US) in LEO that was launched on Mon, 11 Nov 2024 UTC via an FALCON 9 launch vehicle from the Air Force Eastern Test Range (AFETR). Payload-class satellites include a variety of spacecraft equipped with specific instruments for various scientific and technological missions. These include communications satellites like Starlink; space stations such as the ISS; scientific satellites like the Hubble; Earth observation satellites from companies like Planet Labs, Umbra, and HawkEye 360; GPS; miniature CubeSats for education and research; and military/defense satellites.

Loading next visibility...
Identifier
61932, 2024-207W
Orbit
LEO
Country
Flag of USUS
Related business
Manufacturer
SpaceX/Seattle
Mission
Operational Commercial Communications
Bus & Motor
STARLINK V2M, Unknown motor
Mass
730 kg wet, ~700 kg dry
Launch date (UTC)
2024-11-11 (2 years ago)
Launch vehicle
FALCON 9
Launch site
Air Force Eastern Test Range (AFETR)
Object type
Payload
Rocket body
Debris
Shape & HBR
Box + 2 Pan, 17.7 m
Radar Cross Section
33.884 m², Large (>1 m²)

Expand to show TLE details & history
Last TLE update: 1 day ago

TLE from 1 day ago
0 STARLINK-32354
1 61932U 24207W   26206.36254286  .00019041  00000-0  69935-3 0  9998
2 61932  42.9926 228.0079 0001367 150.2334 209.8596 15.27594522 96228
Epoch: 2026-07-25T08:42Z
TLE epoch observation values (Epoch: 2026-07-25T08:42:03.703Z)
Latitude
0.00003°
Longitude
154.4166°
Altitude
483.594 km
Speed
7.625 km/s
True Right ascension
15h 12m 01s
True Declination
0° 00' 00"
Sunlit
Object was in daylight at epoch
Visualization orbit readout
Latitude
Unknown
Longitude
Unknown
Altitude
Unknown
Speed
Unknown
Apparent Right ascension
Unknown
Apparent Declination
Unknown
Sunlit
N/A
Visualization observer readout
Local Sidereal Time
22:17:14
Azimuth
Unknown
Elevation
Unknown
Doppler factor
Unknown
Orbital elements
Apogee altitude
485.89 km
Perigee altitude
484.014 km
Semi-major axis
6,863.089 km
Eccentricity
0.00014
Inclination
42.9926°
RAAN
228.0079°
Arg. of periapsis
150.2334°
True anomaly
209.8518°
Mean anomaly
209.8596°
Eccentric anomaly
209.8557°
Mean motion
3.81737 °/min
Orbital period
94.31 mins
BSTAR
0.00069935
Loading maneuver chart data...
Computing Atmospheric mass density...
Loading historical data...
Loading historical data...
Loading historical data...
Loading historical data...
Loading historical data...
Loading historical data...
Loading historical data...

Documentation

Showing up to 5 results
|